Weather History for Safford, AZ

Change the Weather History Date:

Thursday, March 14, 2013

  Actual Average Record
Temperature  
Mean Temperature 64 °F -  
Max Temperature 84 °F 70 °F 87 °F (1972)
Min Temperature 43 °F 36 °F 23 °F (1956)
Degree Days  
Heating Degree Days 2    
Growing Degree Days 14 (Base 50)    
Moisture  
Dew Point 14 °F    
Average Humidity 16    
Maximum Humidity 31    
Minimum Humidity 6    
Precipitation  
Precipitation 0.00 in - - ()
Sea Level Pressure  
Sea Level Pressure 30.06 in    
Wind  
Wind Speed 4 mph (WSW)    
Max Wind Speed 12 mph    
Max Gust Speed -    
Visibility 10 miles    
Events      
Averages and records for this station are not official NWS values.
T = Trace of Precipitation, MM = Missing Value Source: NWS Daily Summary

Daily Weather History Graph

Daily Weather History Graph

Search for Another Location

Airport:

Trip Planner

Search our weather history database for the weather conditions in past years. The results will help you decide how hot, cold, wet, or windy it might be!

Date:

Astronomy

Mar. 14, 2013 Rise Set
Actual Time 6:29 AM MST 6:25 PM MST
Civil Twilight 6:05 AM MST 6:50 PM MST
Nautical Twilight 5:36 AM MST 7:19 PM MST
Astronomical Twilight 5:07 AM MST 7:48 PM MST
Moon 7:57 AM MST (3/14) 9:32 PM MST (3/14)
Length of Visible Light 12h 45m
Length of Day
11h 56m
Waxing Crescent, 9% of the Moon is Illuminated
Mar 14
Waxing Crescent
Mar 19
First Quarter
Mar 27
Full
Apr 2
Last Quarter
Apr 10
New

Hourly Weather History & Observations

Time (MST) Temp. Dew Point Humidity Pressure Visibility Wind Dir Wind Speed Gust Speed Precip Events Conditions
12:51 AM 53.1 °F 14.0 °F 21% 30.08 in 10.0 mi North 4.6 mph - N/A   Clear
1:51 AM 51.1 °F 14.0 °F 23% 30.07 in 10.0 mi North 6.9 mph - N/A   Clear
2:51 AM 50.0 °F 14.0 °F 24% 30.06 in 10.0 mi Calm Calm - N/A   Clear
3:51 AM 48.9 °F 14.0 °F 25% 30.07 in 10.0 mi NNW 4.6 mph - N/A   Clear
4:51 AM 48.0 °F 16.0 °F 28% 30.08 in 10.0 mi North 3.5 mph - N/A   Clear
5:51 AM 46.9 °F 15.1 °F 28% 30.10 in 10.0 mi Calm Calm - N/A   Clear
6:51 AM 43.0 °F 14.0 °F 31% 30.14 in 10.0 mi Calm Calm - N/A   Clear
7:51 AM 54.0 °F 19.0 °F 25% 30.16 in 10.0 mi Calm Calm - N/A   Clear
8:51 AM 60.1 °F 21.0 °F 22% 30.17 in 10.0 mi NNW 3.5 mph - N/A   Clear
9:51 AM 70.0 °F 21.0 °F 16% 30.17 in 10.0 mi Variable 3.5 mph - N/A   Clear
10:51 AM 73.9 °F 17.1 °F 12% 30.15 in 10.0 mi SE 8.1 mph - N/A   Clear
11:51 AM 78.1 °F 14.0 °F 9% 30.12 in 10.0 mi SSE 9.2 mph - N/A   Clear
12:51 PM 82.0 °F 10.0 °F 7% 30.07 in 10.0 mi South 11.5 mph - N/A   Clear
1:51 PM 84.0 °F 12.0 °F 7% 30.03 in 10.0 mi South 10.4 mph - N/A   Clear
2:51 PM 84.0 °F 12.0 °F 7% 30.00 in 10.0 mi Calm Calm - N/A   Clear
3:51 PM 84.9 °F 12.0 °F 7% 29.99 in 10.0 mi West 5.8 mph - N/A   Clear
4:51 PM 84.9 °F 10.9 °F 6% 29.97 in 10.0 mi Variable 5.8 mph - N/A   Clear
5:51 PM 82.9 °F 10.9 °F 7% 29.97 in 10.0 mi South 5.8 mph - N/A   Clear
6:51 PM 78.1 °F 10.9 °F 8% 29.99 in 10.0 mi West 4.6 mph - N/A   Clear
7:51 PM 66.9 °F 10.9 °F 11% 30.00 in 10.0 mi Calm Calm - N/A   Clear
8:51 PM 64.0 °F 10.9 °F 13% 30.01 in 10.0 mi East 6.9 mph - N/A   Clear
9:51 PM 62.1 °F 12.9 °F 15% 30.00 in 10.0 mi Calm Calm - N/A   Clear
10:51 PM 57.9 °F 10.9 °F 16% 30.01 in 10.0 mi WSW 3.5 mph - N/A   Clear
11:51 PM 55.0 °F 10.9 °F 17% 30.01 in 10.0 mi Calm Calm - N/A   Clear